User: anonymous   Login
Location: Unspecified
(0.0000°N, 0.0000°E)
Time: 17:27:04
(UTC+00:00)
Language:

COMPASS 1 - Orbit

View from above orbital plane
View from above orbital plane
View from above satellite
View from above satellite

Ground track
Ground track

The orbit data is extracted from the following two-line orbital elements,

1 32787U 08021E   18116.11184282  .00000240  00000-0  28273-4 0  9994
2 32787  97.5304 141.4236 0012926 165.8367 194.3218 14.92984227542180
Epoch (UTC): 26 April 2018 02:41:03
Eccentricity: 0.0012926
inclination: 97.5304°
perigee height: 579 km
apogee height: 597 km
right ascension of ascending node: 141.4236°
argument of perigee: 165.8367°
revolutions per day: 14.92984227
mean anomaly at epoch: 194.3218°
orbit number at epoch: 54218

The dashed part of the orbit path shows where the satellite is in the earth's shadow,  

DLR